RH
72 63 54 54 53 52 52 51 48 45 40 38 37 36 36 37 42 48 48 45 48 50 51 57 56 54 64 72 73 70 60 56 62 61 60 62 61 66 72 67 63 67 70 78 89 90 77 66 65 67 65 61 60 69 75 72 69 71 74 76 74 75 75 70 76 80 70 61 62 68 63 53 58 52 35 49 62 45 33 31 29 26 29 51 61
81 78 68 59 54 52 51 52 52 50 47 43 39 38 37 35 35 40 43 39 37 40 45 54 53 48 58 67 63 60 55 51 56 59 57 57 58 64 69 64 60 64 64 63 71 79 73 65 65 67 67 63 58 66 76 73 70 72 73 76 76 77 77 67 67 76 75 67 60 63 62 50 52 51 36 38 42 35 32 29 37 39 22 40 68
74 80 80 69 59 56 53 51 52 52 51 50 48 46 43 36 32 33 37 39 37 35 39 48 50 44 49 55 49 46 48 46 47 47 44 41 42 53 67 65 58 59 63 63 65 70 70 67 69 71 75 71 60 64 76 75 73 73 71 74 74 74 77 66 54 61 70 67 54 57 67 55 44 42 35 35 35 33 36 29 34 43 23 34 71
70 73 77 74 69 66 59 54 54 52 53 55 56 57 56 48 36 29 32 38 39 34 33 39 42 39 40 43 41 39 40 38 38 37 34 32 31 35 44 47 45 47 54 63 69 73 74 72 72 76 80 76 63 64 74 74 72 72 72 72 64 58 65 61 50 50 54 54 46 45 51 43 36 36 32 34 36 33 35 29 28 36 25 35 72
70 71 72 75 78 77 69 64 61 56 55 59 60 60 63 62 50 34 28 35 39 35 30 31 33 33 34 35 35 35 35 33 34 33 30 30 28 29 33 34 34 35 38 44 51 57 65 69 72 76 77 73 65 66 74 73 68 69 71 74 67 56 54 54 52 51 47 46 44 39 39 37 35 34 28 30 34 33 35 34 32 35 27 33 63
70 71 71 73 77 79 77 74 70 63 58 59 63 62 62 65 62 49 35 32 35 34 30 28 28 27 27 31 32 31 30 30 29 28 31 34 30 28 31 32 30 31 32 34 37 41 46 51 58 65 68 68 69 73 77 70 63 64 65 65 66 60 54 50 50 50 46 45 44 39 38 37 35 34 31 27 29 32 34 37 46 53 42 33 43
73 72 71 72 75 77 79 78 75 71 65 60 62 65 64 63 65 62 52 43 39 38 34 29 27 27 26 27 30 30 29 28 26 25 27 33 32 27 29 31 31 31 30 32 40 46 46 46 48 53 53 54 61 70 73 66 60 61 58 53 54 53 55 59 56 51 50 51 51 50 51 48 41 40 38 28 23 27 31 36 52 64 55 39 33
75 75 74 75 73 70 71 76 78 74 68 62 59 62 65 65 64 67 64 56 50 48 45 36 28 26 27 26 27 28 28 27 27 27 25 27 29 26 25 27 29 32 30 29 36 44 50 53 56 59 57 48 46 54 63 65 63 62 58 51 49 48 54 67 70 61 59 63 63 62 60 55 44 37 37 35 34 42 50 48 47 53 58 57 51
73 74 76 79 75 66 63 68 74 73 67 62 59 58 61 63 62 64 62 58 55 55 56 53 41 30 26 27 28 28 28 27 26 26 26 26 26 26 26 25 24 25 26 27 29 31 35 45 55 61 59 46 36 39 49 54 56 60 60 52 47 46 46 55 62 58 56 60 63 63 62 59 53 50 55 60 60 60 59 53 48 56 69 71 67
71 72 74 77 78 76 70 64 64 68 65 60 58 57 58 60 60 59 57 55 55 56 56 59 57 48 36 30 27 26 28 29 27 26 25 24 25 26 27 26 23 22 22 23 24 24 25 33 43 45 40 33 31 32 37 42 44 49 53 48 46 49 48 47 50 53 56 59 62 67 71 69 65 62 64 67 68 66 63 67 71 74 77 74 73
72 74 74 74 76 81 83 73 62 62 63 60 59 58 58 60 59 58 58 56 56 56 55 56 59 60 57 48 40 34 30 27 25 24 24 23 24 25 26 25 23 22 22 21 21 22 23 25 30 32 28 25 28 29 29 35 39 40 42 43 44 48 50 50 50 54 61 65 67 69 69 69 67 62 56 54 62 72 78 82 83 78 79 81 84
75 76 76 77 78 82 87 83 70 65 64 62 62 62 60 61 61 60 59 58 58 58 57 56 56 59 63 63 60 55 47 36 26 21 21 21 22 23 25 27 27 25 23 21 20 20 21 21 27 36 35 27 26 28 27 28 32 35 38 40 41 41 43 45 45 49 56 65 72 72 67 67 67 63 58 51 54 68 75 76 74 69 72 79 83
84 80 77 78 79 82 86 87 83 80 72 65 65 65 63 63 62 62 61 60 61 60 59 59 58 58 60 61 63 66 64 55 40 28 23 21 21 22 24 28 34 36 32 26 21 20 21 20 23 30 33 28 24 27 28 26 26 29 32 35 38 37 36 36 37 40 45 52 60 61 56 54 49 45 47 43 35 40 51 64 72 66 63 70 75
95 89 85 82 80 80 84 88 90 91 85 80 78 75 72 69 64 63 67 70 69 64 60 60 60 59 60 60 60 63 65 65 58 46 35 28 26 26 29 33 39 41 39 33 26 22 21 21 21 22 24 24 24 26 28 28 27 26 27 30 32 34 35 35 35 35 37 40 43 43 40 39 35 32 34 32 26 27 34 50 65 67 63 64 64
100 98 95 94 89 83 83 87 90 91 91 94 96 94 91 87 79 74 76 80 81 75 68 66 65 63 62 63 63 63 63 64 65 61 51 44 42 43 45 48 48 46 42 36 30 24 22 22 22 22 23 23 24 26 27 29 29 27 26 27 28 30 31 32 34 35 36 37 36 37 36 34 34 33 33 34 35 33 34 42 52 57 56 51 48
99 101 99 98 95 89 87 89 90 89 89 93 95 94 94 94 91 87 85 85 85 83 81 79 75 71 68 66 65 66 65 64 64 65 62 59 59 61 61 61 59 57 52 45 37 30 25 24 24 23 24 25 26 26 27 29 31 30 29 27 26 29 34 35 33 31 33 37 35 35 36 36 36 34 33 40 41 36 37 43 45 46 49 51 53
85 93 98 98 99 96 92 91 91 89 88 91 93 93 93 94 95 96 95 94 90 86 85 85 84 83 81 77 71 67 65 64 64 65 65 65 67 68 69 68 67 65 61 56 51 42 32 28 26 25 26 26 26 27 27 29 31 31 32 30 28 31 40 48 46 35 28 30 32 32 32 33 36 36 33 36 37 36 39 40 39 50 66 73 72
67 75 84 89 95 97 97 96 96 92 89 90 92 94 94 94 95 95 97 99 96 89 85 85 85 86 87 85 81 74 68 65 64 65 65 66 68 68 69 71 72 70 68 65 62 56 45 36 30 27 28 27 27 28 28 29 32 33 33 34 32 30 33 45 55 51 41 34 31 32 33 31 33 36 35 35 35 37 41 38 37 56 78 83 79
57 59 64 69 77 83 86 87 89 92 92 90 89 90 92 91 89 90 91 93 93 89 85 83 81 83 85 86 86 83 77 70 66 66 65 65 67 69 70 72 72 71 72 71 69 65 58 48 37 30 28 29 29 29 29 30 32 34 35 37 36 32 32 40 50 56 61 58 45 36 36 36 37 38 38 40 39 39 40 37 35 46 60 68 72
48 50 52 58 63 66 65 65 70 78 83 86 89 91 91 88 84 83 84 85 86 85 84 81 78 77 80 83 84 84 83 78 71 67 66 66 67 69 71 74 74 72 72 73 74 73 69 60 46 33 28 29 30 30 31 31 32 35 38 40 38 34 35 45 52 56 65 71 66 57 50 44 43 45 43 42 42 39 38 37 36 38 43 54 65
43 41 41 48 55 56 54 51 52 55 56 58 66 79 87 88 86 87 86 84 82 80 81 84 83 79 78 82 84 82 82 82 78 73 68 67 68 71 73 74 74 73 74 74 75 78 79 73 58 41 31 30 30 31 31 31 32 35 38 39 38 36 38 47 57 60 59 59 65 71 67 56 51 54 53 52 50 45 39 37 36 37 39 45 56
48 42 37 38 41 46 52 50 44 41 41 44 58 79 93 95 93 94 94 92 87 80 79 86 88 84 82 84 85 84 82 82 83 81 76 70 68 71 73 74 74 76 77 78 76 78 81 81 70 52 36 30 31 32 32 33 34 36 38 37 38 41 44 48 52 57 60 61 64 71 74 71 68 66 65 66 67 62 52 43 38 36 38 39 43
47 47 44 43 39 38 44 49 46 41 40 43 56 75 88 93 93 95 96 95 90 83 80 83 85 84 85 84 84 85 84 81 80 84 83 75 69 69 71 73 74 76 78 79 79 79 80 82 79 65 45 33 31 32 33 36 37 38 39 40 41 45 52 58 59 58 63 68 73 79 83 80 75 74 71 67 67 69 69 64 52 41 38 40 41
38 43 47 50 49 42 37 36 38 41 42 45 50 57 70 82 85 90 96 98 93 87 84 84 85 85 85 84 84 84 84 83 80 82 82 76 68 65 67 70 72 75 78 78 78 80 82 84 84 76 60 46 39 37 37 39 41 42 43 45 48 53 59 65 65 63 64 66 71 79 84 78 72 76 77 67 60 64 73 77 68 51 45 49 50
28 32 39 45 51 54 48 36 29 31 37 45 48 49 59 67 66 71 88 99 98 94 91 91 91 90 88 88 87 85 86 87 85 84 86 83 75 67 64 65 68 72 75 74 72 76 80 83 87 87 80 70 60 51 44 41 42 46 49 50 54 60 65 67 66 67 70 70 69 74 79 74 68 68 65 57 52 56 61 66 65 58 54 57 58
25 25 30 35 41 49 52 44 34 28 26 31 37 40 45 48 45 48 64 84 95 101 101 98 97 97 96 90 85 85 90 91 88 85 86 87 85 80 73 67 66 68 72 71 68 70 74 80 86 90 89 86 80 69 59 52 49 51 54 57 59 62 65 67 67 68 70 71 71 76 80 79 73 66 59 53 53 56 58 60 62 61 59 58 59
27 25 24 28 34 40 47 47 40 32 27 26 32 37 38 42 46 40 37 51 69 84 97 102 99 100 99 90 85 91 96 92 88 88 88 86 88 89 83 73 67 66 68 69 67 68 74 80 84 88 89 90 90 85 76 68 61 57 56 57 59 62 65 66 66 67 68 69 72 77 81 81 76 68 61 57 57 58 57 59 60 58 59 60 61
28 29 24 23 27 31 39 45 43 41 41 36 34 35 34 41 52 43 29 34 45 55 76 95 98 98 99 95 94 93 87 82 85 90 92 89 88 90 88 79 71 66 63 64 67 71 76 78 79 82 85 88 90 91 85 75 66 62 60 60 61 63 66 68 68 68 69 71 73 74 77 80 77 69 62 60 61 60 59 61 60 58 60 66 66
33 34 30 31 36 37 40 46 47 51 53 41 31 31 27 28 36 31 20 27 37 42 58 73 80 88 98 100 94 84 77 80 87 90 91 90 89 92 93 87 81 77 73 75 79 80 78 78 78 79 83 87 91 93 90 84 76 69 67 67 67 66 67 69 68 67 67 69 71 73 75 78 79 76 70 64 61 59 60 62 63 63 65 70 74
49 46 42 48 61 62 56 50 47 51 55 46 41 44 34 21 24 27 20 19 23 27 36 42 46 64 85 91 85 79 81 89 89 85 88 92 91 94 97 94 91 89 88 90 89 80 73 75 79 81 86 92 95 94 91 90 87 82 77 74 71 69 69 69 69 68 68 67 67 70 72 75 77 80 78 71 62 58 61 65 68 70 71 74 81
63 62 60 63 67 64 57 49 42 44 51 54 60 69 56 29 17 20 21 19 17 17 20 24 28 42 61 71 71 71 76 86 89 89 92 95 95 97 100 100 98 95 94 93 84 71 67 72 74 76 82 90 94 92 86 83 84 86 86 84 81 77 74 71 71 71 72 71 70 69 69 71 74 78 81 79 72 68 71 77 77 75 76 80 88
72 71 69 65 60 58 61 62 54 47 48 51 58 76 86 68 42 25 19 17 17 16 16 18 23 32 43 54 59 58 57 64 76 86 92 94 96 98 100 100 98 94 93 88 76 68 71 74 72 73 78 85 92 93 87 80 79 81 84 87 87 87 85 82 78 73 70 72 75 75 72 70 71 74 77 81 81 78 78 83 85 82 81 86 92
82 79 76 73 69 71 79 81 69 54 51 51 52 68 93 98 85 70 53 31 17 17 19 15 18 28 37 45 51 52 52 57 68 80 89 93 93 95 98 100 98 96 94 89 80 78 81 78 75 77 80 84 91 93 90 85 81 80 82 85 86 87 88 89 89 85 77 73 74 76 76 73 72 73 72 74 79 82 83 85 86 84 82 83 87
91 87 85 85 84 86 92 94 83 67 58 54 53 67 90 99 97 98 90 57 22 14 18 16 14 21 29 37 45 51 54 60 69 81 92 96 94 94 98 101 100 99 99 95 88 85 86 83 81 83 82 83 87 89 90 90 88 84 83 84 85 86 86 87 90 91 90 86 81 79 79 77 74 74 74 75 80 86 88 88 87 87 87 85 84
95 91 87 85 82 84 92 97 96 87 73 59 56 70 87 90 87 93 99 77 38 15 14 17 17 17 18 22 31 41 50 57 66 79 91 96 97 98 98 98 99 100 100 99 94 89 86 83 82 84 84 83 83 84 87 90 90 88 87 86 85 85 87 88 87 87 90 92 90 86 85 82 77 76 79 82 85 87 88 89 90 92 94 92 89
95 93 92 89 85 84 90 95 98 95 83 69 64 69 72 75 81 88 92 83 58 33 19 17 18 20 19 16 16 24 38 50 57 64 75 86 96 100 96 93 96 100 100 98 95 92 89 84 83 87 90 89 87 88 88 87 86 87 89 89 85 82 84 88 90 89 87 86 86 88 89 87 85 85 85 85 86 88 89 88 90 95 98 95 92
94 92 93 95 94 90 91 94 97 98 90 77 69 69 70 78 90 95 89 82 74 60 40 25 22 22 23 26 25 22 28 42 49 49 54 69 88 99 97 92 95 100 101 98 94 89 87 84 84 89 91 90 90 92 89 85 84 85 86 88 87 85 85 85 86 88 88 85 84 86 87 86 87 90 91 89 88 90 91 89 90 96 99 97 95
95 93 91 92 89 86 87 90 94 99 98 85 75 77 82 84 88 91 86 79 79 75 61 47 41 34 30 44 56 44 29 36 48 46 41 51 73 93 99 97 97 100 100 99 96 91 84 78 77 80 82 82 85 89 89 87 87 87 88 89 92 94 92 87 84 85 87 87 87 87 89 89 90 91 94 95 94 92 91 90 92 96 98 99 98
94 93 91 89 85 83 87 92 95 100 102 94 86 88 91 85 78 81 85 82 80 82 78 70 65 53 42 56 80 75 49 40 47 46 39 46 68 90 99 99 99 100 99 97 96 94 90 82 77 77 79 78 81 87 92 92 91 91 93 95 97 96 92 88 86 87 88 90 91 90 88 88 89 90 93 95 94 94 94 94 96 98 99 100 98
92 91 91 90 88 86 88 92 94 98 99 95 91 93 95 90 82 83 88 88 86 89 87 80 74 65 55 60 82 91 73 53 49 51 53 61 77 94 100 99 99 101 101 98 96 95 95 93 89 88 88 87 87 91 95 95 93 93 96 99 98 94 88 87 89 89 89 92 95 93 88 85 86 88 89 85 84 89 95 97 98 99 99 100 98
92 90 88 87 86 86 87 89 91 93 94 93 93 94 96 96 94 91 91 92 90 90 87 80 72 68 64 64 74 86 86 76 70 72 73 76 85 96 100 99 98 99 101 101 99 98 98 96 92 91 92 93 94 96 98 98 96 95 96 98 96 91 87 86 86 86 86 90 95 96 95 94 94 94 92 87 86 90 96 98 99 99 99 100 100
95 91 84 80 81 84 86 89 91 92 92 92 94 94 93 95 99 98 94 91 87 85 84 80 73 68 67 65 67 76 85 88 90 88 82 78 81 87 93 97 98 96 98 100 100 100 101 99 96 95 95 95 95 95 95 96 97 98 97 97 96 93 89 85 83 83 86 91 94 93 93 95 98 98 97 96 97 98 99 99 99 99 99 100 100
101 95 83 76 77 81 85 87 89 90 92 94 95 96 96 97 100 100 95 90 85 82 79 78 75 72 69 68 72 76 78 80 88 94 90 84 79 79 86 96 100 98 97 98 97 97 99 100 100 100 99 97 97 97 96 96 98 99 100 99 98 98 95 91 90 91 93 95 98 96 92 92 95 97 98 99 100 100 99 99 99 99 99 99 97
99 99 93 87 87 87 87 88 88 90 96 99 99 99 100 100 100 100 98 95 93 90 85 80 79 77 74 74 79 86 86 85 91 98 99 96 90 83 83 91 98 99 99 99 97 95 96 98 99 101 100 99 99 100 100 100 100 100 101 101 100 100 98 95 96 100 100 99 101 100 95 91 92 95 98 100 100 100 99 98 97 96 95 96 96
93 97 98 96 94 92 92 93 94 96 99 101 100 100 99 98 98 100 99 99 100 99 93 87 83 82 81 79 80 82 84 86 92 97 99 100 99 93 87 89 95 98 99 99 99 98 98 98 99 100 100 100 101 100 100 101 101 100 100 101 100 99 97 95 95 98 98 99 100 99 95 92 93 96 98 99 99 100 99 98 98 95 92 93 96
92 94 95 94 94 94 95 97 99 100 100 100 100 100 99 97 97 99 99 99 100 101 99 96 91 86 84 84 83 81 80 81 85 92 97 100 100 97 93 92 95 97 97 97 98 99 99 100 100 99 99 100 101 101 100 100 101 100 100 100 100 98 95 94 95 96 97 99 101 100 98 97 98 98 98 97 98 100 100 99 100 99 97 96 98
96 96 96 96 97 98 98 98 99 100 101 100 100 100 100 99 97 96 96 98 100 100 100 99 95 89 86 86 88 89 89 87 88 92 97 100 100 100 98 97 97 98 98 98 98 99 100 100 100 99 99 99 99 100 100 100 100 99 98 97 96 94 91 91 94 97 99 100 101 100 100 101 101 100 98 97 98 100 101 100 99 100 100 99 100
100 99 99 99 100 99 99 101 101 100 100 100 100 100 101 100 97 95 95 97 99 101 100 98 96 94 93 94 96 96 97 97 97 97 99 100 100 100 101 100 99 99 99 100 100 100 100 101 100 100 99 99 99 100 99 99 98 97 96 96 95 94 92 92 93 93 95 98 101 101 100 100 100 100 100 99 100 100 100 100 100 100 100 100 100
100 100 100 100 100 100 100 101 100 100 100 101 100 100 100 99 96 93 93 94 97 100 100 99 99 99 99 99 100 100 100 100 100 100 99 100 100 100 100 100 100 100 100 100 101 100 100 100 101 100 100 100 100 100 99 99 98 96 95 94 93 92 93 93 91 90 92 97 100 101 100 100 101 101 100 100 100 100 100 100 100 100 100 100 100
100 100 100 100 100 101 100 100 100 100 100 100 100 100 100 99 96 93 91 93 96 100 100 99 100 100 100 100 100 100 100 101 101 100 100 100 100 100 100 100 100 100 100 100 100 101 100 100 100 100 100 100 100 100 100 100 99 98 97 96 95 95 95 94 92 93 96 99 101 100 100 100 101 101 100 100 100 100 100 100 101 100 100 101 100
100 100 101 100 100 101 100 100 100 100 100 100 101 100 99 97 94 92 93 94 97 100 100 99 99 100 100 100 100 100 100 100 100 100 100 100 100 100 101 101 100 100 101 100 100 100 100 100 100 100 100 100 100 100 100 100 100 100 99 98 98 98 97 95 95 97 100 100 100 100 100 101 100 100 100 100 101 100 100 100 101 100 100 100 100
Wind_Speed
23 25 25 24 23 23 22 21 19 19 20 22 23 22 21 20 19 18 18 18 19 19 18 18 17 15 13 12 11 11 10 10 10 10 10 9 8 8 9 9 8 8 8 8 8 9 9 9 8 8 8 8 8 8 8 9 9 8 8 8 7 7 7 7 7 8 8 6 6 6 7 7 7 10 11 9 10 14 14 14 14 15 14 13 17
21 23 25 26 25 23 23 22 21 20 20 21 21 22 22 22 21 20 20 20 20 20 20 19 18 18 16 15 14 13 12 11 11 11 10 10 9 9 9 9 9 9 9 9 9 10 10 10 9 9 9 8 8 8 8 9 9 9 9 8 8 7 8 8 8 9 9 7 6 6 8 8 7 9 11 10 12 13 13 13 12 13 15 12 12
21 22 24 27 27 25 25 24 23 22 21 21 21 21 22 22 23 22 21 20 20 21 21 20 20 20 19 18 17 16 15 14 13 13 12 10 10 9 10 10 9 9 10 10 10 10 11 11 10 10 9 9 9 9 9 10 10 10 10 10 10 9 9 10 11 10 10 9 8 7 8 9 9 9 11 11 12 13 13 14 12 12 15 13 10
20 22 24 25 25 26 27 27 26 24 23 22 21 20 20 21 22 23 22 21 21 21 22 22 22 22 21 21 20 19 18 17 16 15 14 12 11 10 10 10 10 9 10 10 11 11 12 12 12 11 11 12 11 11 11 11 12 12 12 12 12 11 11 12 12 11 12 12 10 8 9 10 10 10 11 11 12 13 13 15 13 12 14 12 8
19 20 21 22 22 24 26 27 27 27 25 24 22 21 20 20 21 22 23 23 22 22 22 23 24 24 23 22 22 21 20 20 19 18 16 14 13 12 11 11 10 10 10 10 11 12 13 13 13 13 13 14 14 13 12 13 13 13 12 12 12 12 12 12 13 13 13 13 12 11 10 10 11 11 11 11 12 14 14 15 15 15 15 11 7
19 19 19 19 20 21 23 25 26 27 26 25 23 22 21 21 21 21 22 23 24 24 24 24 24 24 24 23 23 23 23 22 21 20 18 17 15 14 13 13 12 12 12 12 12 12 13 14 14 15 15 15 15 14 14 15 15 15 14 14 14 14 14 14 14 14 15 15 14 14 13 12 13 13 13 12 12 13 14 15 14 14 15 13 10
20 21 19 19 20 20 21 22 24 26 27 26 24 23 22 22 21 21 21 21 23 24 25 25 25 25 25 24 24 24 24 24 24 22 21 20 19 17 16 16 15 15 15 14 14 13 14 14 15 16 16 17 16 16 16 16 17 17 17 17 16 16 15 15 15 16 16 16 16 15 14 14 14 13 14 14 14 14 14 14 12 12 15 17 14
18 20 20 21 22 22 21 21 22 24 26 27 26 25 24 24 23 23 23 22 22 23 24 26 26 26 26 26 26 26 26 26 26 26 25 23 22 21 20 19 18 18 18 17 16 16 16 16 16 16 17 18 17 17 17 17 18 18 18 18 18 18 17 15 16 16 16 16 16 15 15 15 16 16 15 15 14 13 12 13 14 14 15 16 16
16 17 19 22 23 23 23 23 23 25 26 27 27 27 26 26 26 26 26 25 24 23 23 24 25 27 27 28 28 28 29 29 29 29 28 27 25 25 23 22 21 20 20 20 19 19 18 18 17 17 18 19 19 18 18 19 19 19 19 19 19 19 19 18 18 18 18 17 17 16 16 16 16 15 13 12 12 12 12 14 14 14 13 14 15
19 17 18 21 22 22 24 25 25 26 28 28 27 26 26 27 28 29 29 29 27 25 25 25 25 26 28 29 30 30 31 32 32 32 30 29 28 27 26 25 24 23 22 22 22 22 21 20 20 20 20 20 20 19 20 21 21 21 21 21 20 19 20 20 20 20 19 19 18 16 15 15 13 12 12 11 12 12 12 12 12 11 12 14 13
24 21 19 20 21 21 22 24 25 25 26 27 27 26 25 26 28 29 30 30 29 28 27 27 27 27 27 28 29 31 32 33 34 33 32 31 29 29 28 27 26 25 24 24 25 24 24 23 22 22 23 22 21 21 22 22 23 22 22 22 22 21 20 21 22 21 20 20 18 17 16 15 14 14 13 12 11 11 10 10 11 12 13 13 12
26 26 24 22 21 21 22 23 23 23 23 24 25 26 26 27 28 29 29 29 30 30 29 29 29 28 28 28 28 29 31 33 35 34 32 31 30 30 30 29 28 28 27 27 27 26 26 26 25 24 24 24 24 23 23 24 24 24 24 24 24 24 24 24 24 23 22 21 19 19 18 17 17 16 14 13 12 12 12 13 14 15 15 14 13
23 26 28 26 23 21 21 21 20 20 21 23 23 25 27 28 27 27 27 28 29 29 29 29 29 29 29 30 29 29 30 32 34 34 33 32 31 31 31 31 31 30 29 29 29 28 28 28 27 26 26 26 26 25 25 25 25 26 27 27 28 28 28 27 27 26 26 24 24 24 23 22 22 20 18 17 17 17 17 16 15 16 17 17 16
16 20 24 27 27 25 22 21 19 18 18 19 19 21 24 26 26 26 26 26 27 29 28 28 29 29 29 29 30 30 31 31 33 34 34 33 33 32 32 32 32 32 32 32 31 31 30 30 30 30 29 29 29 28 27 27 27 27 28 29 30 30 30 30 29 29 29 28 29 28 27 27 26 25 23 22 22 21 20 19 17 16 18 19 19
10 16 17 20 25 27 25 22 20 18 17 16 15 16 18 19 21 24 24 23 24 26 27 27 28 29 29 29 29 30 32 32 32 33 33 33 32 32 32 32 33 34 35 35 35 34 33 33 33 33 31 31 31 30 29 28 29 29 30 30 31 31 32 32 32 31 30 30 31 30 29 29 28 27 25 24 23 22 21 20 19 18 19 20 21
2 11 15 17 20 24 25 24 21 19 18 17 16 16 17 17 18 20 22 22 21 22 24 25 27 28 29 29 29 30 31 32 32 32 32 32 30 30 30 31 32 34 35 36 37 37 37 36 35 35 34 33 32 32 30 29 30 31 31 32 32 32 32 32 33 32 31 30 31 30 29 29 29 29 27 24 23 23 21 20 20 21 20 20 21
6 2 8 12 16 20 23 25 24 22 20 18 17 17 18 18 18 18 20 20 20 21 22 23 24 25 26 28 30 31 31 32 33 33 32 32 31 30 30 31 32 34 35 36 37 39 39 39 38 37 36 35 34 33 32 31 31 32 32 33 33 33 31 29 30 32 32 31 31 31 31 29 29 29 28 26 25 24 24 24 24 21 19 18 19
7 4 2 4 9 13 18 23 24 24 24 22 20 19 19 20 19 19 19 19 20 21 22 23 23 23 24 26 28 30 32 32 33 33 33 32 31 31 31 31 32 34 35 36 37 39 40 40 40 39 38 36 35 34 33 32 33 33 33 34 34 35 34 29 26 28 31 32 31 30 31 31 30 29 29 28 27 26 26 27 25 21 18 18 18
8 6 4 4 5 6 9 13 16 19 23 25 24 23 23 23 21 21 22 22 22 23 24 24 25 24 25 26 27 29 31 32 33 33 33 33 32 31 31 32 33 34 35 35 37 38 40 41 41 40 39 37 36 36 35 34 34 34 34 34 35 37 35 31 28 27 26 29 31 31 30 30 29 29 29 28 27 27 28 28 27 25 23 22 20
7 7 5 4 5 5 6 7 9 13 16 19 21 23 24 26 27 28 27 26 26 26 26 27 27 27 27 27 27 28 30 32 33 34 34 33 32 32 31 32 34 34 34 35 36 37 39 41 42 42 40 39 38 37 37 36 36 35 34 35 37 37 35 31 29 28 27 26 28 28 28 27 26 27 29 29 29 30 30 29 29 28 27 26 22
8 8 8 6 6 5 6 8 9 10 12 13 15 16 18 22 27 29 29 28 28 28 28 28 28 28 27 27 27 28 29 31 32 34 34 34 32 32 32 33 33 34 34 34 35 36 37 39 42 43 41 39 38 38 38 38 37 36 36 37 37 37 35 32 30 29 30 30 28 27 27 28 27 26 27 28 29 31 31 31 30 29 29 28 25
12 8 9 9 8 7 8 9 8 9 11 13 13 13 14 17 22 24 25 25 25 26 26 25 25 26 27 28 28 29 30 31 32 34 36 36 34 33 33 34 33 33 33 34 35 36 36 37 39 42 42 40 38 38 39 38 38 38 38 38 37 36 35 34 32 31 31 31 30 28 28 27 27 26 26 26 26 27 29 31 31 30 30 30 28
19 13 10 10 11 11 11 11 9 9 10 12 14 14 14 16 19 21 23 23 24 25 25 24 24 26 29 31 30 30 31 33 34 35 36 37 37 36 35 35 34 33 33 34 35 35 35 35 37 39 40 40 39 38 38 38 39 39 38 37 36 35 34 33 33 33 32 31 29 26 25 26 26 26 26 26 25 25 25 27 29 29 28 28 29
24 21 16 13 13 12 11 11 11 11 10 11 14 16 15 13 14 17 22 24 24 25 25 25 26 28 31 32 32 31 31 32 34 35 36 38 39 39 39 37 35 34 34 35 35 35 34 33 34 36 38 39 38 38 37 37 38 38 37 35 34 33 33 33 33 34 34 33 31 27 25 27 28 26 26 27 27 26 25 26 28 28 26 25 27
26 25 23 20 17 14 11 10 10 12 12 11 13 16 17 16 15 16 19 23 25 25 24 23 24 27 29 30 31 31 30 30 32 32 34 36 38 40 40 40 39 36 35 36 37 36 34 32 31 32 34 35 35 35 36 37 38 37 35 34 33 32 33 34 34 34 34 34 33 30 27 28 30 29 28 27 26 27 27 26 27 27 25 24 25
28 28 27 25 23 19 15 12 11 11 12 13 14 14 16 18 20 19 18 21 24 24 23 20 20 23 25 28 31 30 28 29 31 30 32 35 36 38 38 39 39 37 35 36 38 37 35 32 31 32 33 33 32 32 34 35 36 35 34 33 33 34 35 36 36 37 36 35 32 29 27 27 29 30 29 26 24 25 26 25 25 25 25 25 25
30 30 29 28 26 24 21 18 15 14 14 15 16 16 15 15 18 20 21 21 23 25 24 21 21 22 22 25 29 28 28 29 30 30 32 33 34 35 36 36 36 35 34 35 37 36 34 32 31 31 32 33 32 32 32 33 34 35 36 36 36 37 37 38 38 38 39 37 34 30 29 29 29 29 28 27 26 26 26 26 26 25 26 26 26
32 31 30 29 28 27 26 24 21 19 17 17 18 19 18 16 15 17 20 21 24 27 26 25 25 25 23 23 24 24 25 28 30 31 31 29 28 29 29 29 30 30 31 34 36 35 32 30 30 31 31 33 34 33 33 35 36 37 38 38 38 39 39 38 39 39 39 37 35 34 33 31 30 31 31 30 29 28 26 26 27 27 27 27 27
33 32 30 29 28 27 26 26 25 24 22 21 21 21 21 21 20 20 20 20 22 26 28 29 30 27 24 23 23 24 26 27 28 29 29 28 27 26 24 26 27 26 27 30 31 31 29 28 30 32 31 31 31 30 30 33 35 38 39 40 39 40 40 40 41 42 41 40 38 36 34 32 30 31 32 32 32 30 28 27 28 28 28 28 27
31 31 29 27 24 23 23 24 26 28 26 24 23 23 24 24 25 26 26 23 22 23 26 30 33 32 29 27 26 28 29 28 25 25 27 29 28 26 25 26 28 28 28 25 23 28 32 32 32 33 30 28 27 26 26 28 30 33 36 38 39 41 42 43 43 43 42 43 42 40 38 36 34 32 31 32 33 32 31 30 29 28 28 28 25
29 29 27 26 25 25 25 25 26 28 29 28 26 25 25 25 25 26 28 29 26 24 25 28 31 35 36 35 33 32 33 32 30 30 31 31 30 28 26 27 28 30 29 23 19 26 35 37 36 36 33 31 30 29 28 29 29 29 29 31 34 36 39 42 44 44 43 43 43 43 42 41 39 36 33 33 34 33 32 30 29 29 29 26 23
29 29 28 27 28 28 26 23 23 26 29 30 30 27 25 24 25 26 28 30 29 27 26 27 28 31 36 38 38 37 36 36 38 40 39 38 36 35 34 34 33 33 29 22 19 24 30 33 35 37 36 34 31 27 27 29 31 30 28 28 29 30 31 34 37 41 44 43 42 42 42 43 42 39 37 35 34 34 34 31 29 31 30 26 24
28 29 28 28 27 26 23 22 22 24 27 30 31 29 24 23 25 24 24 27 29 28 26 26 27 29 31 34 38 40 40 39 41 42 41 40 39 38 39 40 40 36 28 21 21 24 26 29 32 34 35 34 29 26 27 29 30 31 31 30 29 29 28 27 28 31 36 40 41 41 41 40 40 39 39 38 36 34 34 33 31 31 30 29 28
27 27 26 25 24 22 22 23 23 24 24 27 30 29 24 23 25 24 23 26 30 30 28 26 26 27 28 29 33 38 42 43 43 42 40 37 36 35 36 38 41 38 30 25 25 27 27 28 31 31 32 32 31 30 30 28 27 30 33 32 31 30 30 29 29 28 27 29 33 36 38 38 38 36 36 36 35 33 32 31 29 28 28 30 30
28 27 27 28 27 26 26 25 25 24 23 25 27 27 25 27 30 28 26 27 30 32 31 28 27 28 29 29 29 33 37 41 43 42 39 34 31 30 32 34 37 37 33 30 31 32 30 31 32 31 30 30 30 31 31 29 27 29 32 32 31 32 31 31 32 31 28 26 27 29 31 33 35 36 34 32 32 32 31 29 29 30 29 29 30
28 28 28 28 28 27 26 25 25 24 24 24 26 27 29 31 32 30 29 32 34 34 34 32 30 30 31 32 32 32 33 35 39 40 39 33 28 27 30 32 34 35 34 34 35 35 33 33 32 29 27 27 26 26 28 30 29 30 32 31 30 31 32 32 31 31 31 30 29 28 27 28 29 31 33 32 31 32 31 28 30 33 31 29 30
27 27 27 26 25 25 25 25 25 25 24 24 26 28 29 29 27 26 29 33 34 34 35 36 34 32 33 33 33 34 34 33 34 36 36 32 28 26 29 32 32 31 31 33 35 37 38 37 33 29 27 27 27 26 28 30 30 31 33 32 30 31 32 32 31 31 31 31 31 30 30 30 29 29 30 30 30 31 31 28 29 32 32 30 31
28 28 28 27 25 24 24 25 25 25 25 25 25 25 25 25 25 26 29 32 32 33 35 36 36 34 33 31 28 30 34 36 34 34 33 31 28 26 27 30 31 30 30 30 31 32 35 37 37 35 33 33 33 31 30 31 31 31 31 30 30 29 29 30 31 33 34 33 30 28 29 29 29 29 29 29 29 30 31 31 31 31 30 30 32
28 29 29 29 28 28 28 27 26 26 25 25 24 22 21 23 25 26 27 30 31 32 32 34 35 35 34 30 24 23 29 34 35 35 37 36 32 27 26 27 27 28 30 32 30 27 28 31 33 34 35 37 37 34 30 29 30 28 27 28 30 30 31 32 33 33 32 31 30 29 30 30 29 29 30 31 31 30 30 31 32 30 29 30 33
26 27 27 27 28 28 28 27 26 26 25 24 24 23 21 21 22 23 24 26 28 29 30 33 35 35 35 33 28 24 27 32 34 35 38 37 31 26 25 26 25 25 27 28 28 27 26 25 25 26 27 29 31 30 28 29 30 26 24 28 31 31 33 36 36 33 33 32 30 32 36 36 34 33 34 36 37 35 32 30 30 29 28 29 32
26 26 26 27 27 27 26 25 25 25 24 24 24 24 23 22 20 20 22 23 26 29 31 34 37 38 37 36 35 32 31 32 32 32 33 33 29 25 25 25 26 26 27 27 27 27 27 26 26 26 25 24 24 25 26 28 29 26 26 29 31 32 34 36 36 35 36 35 33 34 36 35 34 34 36 38 39 37 32 29 28 28 29 31 33
27 28 27 26 26 27 26 24 23 24 24 24 24 24 25 24 21 19 22 24 27 30 33 36 38 40 39 38 38 36 34 32 30 30 31 32 32 31 29 27 26 26 26 27 28 29 29 28 29 30 30 27 27 27 27 27 27 26 26 28 31 32 35 37 37 37 37 36 36 37 38 37 37 37 36 36 37 34 31 29 27 28 31 34 34
26 27 28 28 28 28 27 25 24 25 25 24 24 24 25 25 23 22 25 28 29 31 34 36 38 40 41 40 39 38 37 35 32 31 31 32 32 32 31 29 27 26 26 27 30 32 32 32 32 32 33 32 31 30 29 29 28 26 25 25 27 29 31 32 32 32 31 29 30 33 35 37 40 41 40 40 40 38 36 34 32 31 34 36 37
23 24 26 27 28 28 28 26 26 26 25 23 23 24 26 28 28 27 29 29 28 29 32 35 36 37 39 39 38 36 34 32 30 29 30 30 30 31 31 30 29 29 29 30 32 33 34 34 34 35 35 35 35 35 34 32 32 31 31 31 31 31 31 31 29 28 25 23 25 30 33 35 38 41 42 43 43 41 40 38 36 36 37 40 41
21 22 23 25 25 26 26 24 23 24 23 20 20 22 26 30 31 31 31 30 28 28 31 34 36 36 37 37 37 37 36 33 31 30 31 31 31 31 31 31 31 32 33 34 35 35 36 36 36 37 37 37 38 38 37 36 35 34 34 34 34 34 34 35 34 33 30 28 29 33 36 36 37 39 42 44 44 43 42 41 39 40 41 43 44
23 24 25 24 23 23 23 22 21 20 19 17 16 18 22 26 28 29 30 30 29 30 32 34 34 35 35 36 37 37 38 37 36 35 36 36 34 32 31 31 32 34 36 37 36 36 36 37 36 37 37 37 37 37 37 36 35 34 34 34 34 35 35 36 36 37 36 35 35 37 38 37 36 37 40 43 45 45 43 41 41 42 43 43 43
24 24 24 23 22 22 21 21 20 19 18 17 16 16 18 22 25 28 30 30 31 32 32 32 33 33 34 34 35 35 35 36 35 35 36 37 37 34 31 30 31 33 35 36 35 35 35 35 35 35 35 35 36 36 35 34 34 34 34 34 35 35 36 36 36 36 37 37 38 38 38 37 37 37 39 41 42 43 43 42 41 42 43 42 42
21 21 21 21 20 19 18 16 16 16 17 18 17 17 17 20 23 26 28 30 30 31 31 31 32 32 31 31 31 31 31 32 32 32 34 37 38 35 32 31 32 33 35 35 35 34 34 34 34 34 34 34 34 34 34 34 34 34 34 34 34 34 34 33 33 34 35 36 37 37 36 35 35 36 36 37 38 39 41 41 41 42 43 43 41
18 18 18 18 18 16 15 15 15 15 16 18 19 18 17 19 22 25 28 29 29 29 29 29 31 31 32 31 31 30 30 31 30 31 33 36 37 35 33 32 33 34 35 35 35 34 34 34 34 34 34 34 34 34 34 34 33 33 33 33 33 32 31 30 30 32 34 35 36 35 33 32 32 33 33 34 35 36 37 39 39 40 40 39 34
16 15 15 15 15 15 15 15 15 14 14 15 15 16 18 20 23 25 26 27 27 27 27 29 30 31 32 32 31 31 31 31 31 31 33 34 35 34 33 33 33 33 33 33 33 33 33 32 32 32 32 32 33 34 34 33 33 32 33 33 33 33 32 30 30 30 32 33 33 31 29 29 30 31 31 32 34 34 34 35 35 33 29 26 24
13 12 12 13 15 15 15 15 14 13 12 12 12 15 19 22 23 23 24 25 25 25 26 28 29 30 30 29 29 29 29 29 29 30 31 31 32 31 30 30 30 30 30 30 29 29 29 28 28 28 28 28 29 30 30 31 31 31 31 32 32 31 30 28 28 28 28 27 26 26 26 26 28 29 30 31 32 31 30 29 27 23 21 19 18
Wind_Direction
230 236 238 235 232 232 231 229 227 226 226 227 228 229 229 229 228 227 225 222 222 223 223 224 224 221 217 217 219 223 225 224 227 228 227 231 236 232 234 244 247 245 247 243 239 241 243 240 238 238 237 238 236 226 229 238 238 240 246 249 256 265 272 280 285 291 297 292 290 299 299 305 312 311 316 318 313 316 322 323 328 337 349 347 332
220 231 240 241 238 235 233 233 231 228 227 229 229 229 229 229 229 228 228 224 221 221 222 223 225 223 219 220 221 223 222 221 224 227 225 227 232 234 237 243 245 244 247 246 243 244 248 247 242 241 240 237 233 225 224 233 237 239 244 247 248 252 264 274 279 284 291 291 288 294 300 305 306 304 308 309 306 311 316 321 327 329 338 348 328
220 226 235 241 243 241 238 236 235 232 230 230 230 229 229 230 230 228 229 228 223 221 220 222 225 224 221 222 223 224 222 219 221 225 226 227 231 232 235 241 246 246 247 247 246 246 249 250 247 243 243 241 237 230 226 230 232 233 236 241 247 252 260 269 275 278 282 283 284 290 291 294 299 300 303 306 307 312 314 317 323 321 329 345 330
219 224 231 238 242 243 244 241 238 236 233 231 231 229 227 229 231 230 228 229 228 225 222 222 224 225 224 225 226 226 225 223 223 225 227 229 234 237 237 241 247 249 248 246 245 244 246 249 248 245 244 244 244 239 235 235 235 236 240 246 254 257 255 261 269 272 275 278 280 283 282 288 297 299 303 307 306 308 308 311 317 314 321 341 329
216 220 227 232 235 239 243 242 240 238 236 232 230 230 225 224 231 233 230 229 230 230 227 224 225 226 225 226 229 229 228 228 228 228 230 231 233 236 241 245 249 251 252 249 247 245 244 245 247 245 245 246 247 245 242 243 242 242 244 247 253 257 254 256 261 265 271 275 279 283 285 290 296 296 300 303 302 305 307 309 314 312 316 332 324
222 221 222 225 228 232 236 239 238 238 239 236 231 229 227 223 227 234 234 231 231 234 233 229 227 227 226 226 229 231 231 232 233 232 232 234 235 236 241 246 251 253 254 254 252 250 247 246 245 244 244 245 246 245 243 245 246 245 245 245 248 253 256 257 259 263 269 273 277 283 286 288 293 295 298 298 296 298 301 305 310 310 311 317 318
231 230 228 227 228 227 228 233 236 236 239 240 235 230 229 227 226 230 236 236 233 234 237 236 232 229 228 228 229 231 233 233 235 235 235 238 241 242 243 247 251 254 255 256 254 252 251 250 248 246 246 246 245 245 244 246 247 247 248 249 250 252 255 258 261 264 268 271 275 280 283 285 288 292 295 296 295 296 296 298 300 302 306 309 312
239 238 231 229 233 235 232 231 234 238 241 243 242 237 232 231 229 229 235 240 238 236 237 240 239 235 233 232 232 233 234 234 235 236 237 240 244 246 247 248 250 252 255 256 254 252 250 249 248 246 248 249 246 243 244 245 246 247 249 250 251 253 253 252 256 261 263 266 269 272 275 279 284 290 292 292 294 293 290 290 292 297 302 305 309
228 234 231 229 235 245 245 238 236 242 246 248 249 247 242 239 237 236 239 243 243 240 237 239 241 241 239 237 236 237 238 238 238 238 239 240 242 246 250 250 250 251 252 254 255 254 252 249 247 245 246 249 248 244 243 244 245 246 247 250 252 253 254 252 253 258 261 262 264 267 271 276 282 288 287 284 284 284 283 285 288 292 293 296 304
213 219 227 232 237 245 250 250 246 245 249 253 255 254 251 248 246 246 246 248 248 246 243 241 241 243 243 241 240 240 241 242 242 240 240 241 243 245 249 250 250 249 250 251 252 254 255 253 251 249 249 250 249 245 242 243 245 245 245 249 251 251 253 255 255 257 259 260 261 263 265 268 272 276 277 278 279 280 281 280 280 283 284 290 298
216 215 221 230 236 238 243 251 254 251 251 255 257 258 258 255 254 253 253 253 252 251 248 245 242 242 244 245 244 243 243 244 245 243 241 241 242 244 246 249 249 248 248 249 250 251 253 254 254 256 256 254 251 248 245 243 244 245 246 248 250 250 250 252 254 256 256 258 259 259 260 262 265 269 273 277 275 272 270 270 274 279 281 284 288
225 224 225 228 232 235 238 246 254 255 254 256 257 259 260 260 259 258 257 257 256 255 253 250 247 244 244 245 245 246 246 246 246 246 244 242 241 242 245 248 250 250 249 249 249 249 250 252 254 256 257 257 255 252 249 246 244 245 246 247 249 250 250 251 253 254 254 256 257 257 259 261 264 268 271 271 269 266 267 271 275 279 279 279 280
231 232 234 235 237 239 241 243 247 249 253 257 259 260 261 261 260 261 261 260 260 260 258 255 252 249 246 246 246 245 247 248 248 247 246 244 243 242 244 246 248 250 250 249 249 249 249 250 252 253 255 258 258 255 252 251 248 246 247 247 248 250 251 252 252 253 253 255 256 258 261 264 268 271 272 271 272 273 274 273 273 276 277 277 278
234 236 240 242 242 242 242 242 243 242 245 250 253 254 257 258 258 259 259 258 259 262 262 259 256 253 250 249 249 247 247 248 249 248 245 244 244 243 244 246 247 248 249 249 249 248 248 249 251 253 255 257 258 255 253 253 252 250 249 249 250 251 252 252 253 253 253 253 255 260 263 267 270 274 274 274 275 276 277 274 271 272 274 275 277
230 229 236 242 242 241 240 242 243 242 240 239 238 240 245 248 251 255 253 249 252 259 263 263 262 260 255 252 250 250 249 247 247 248 246 245 244 245 245 246 247 247 248 248 248 247 247 248 250 252 253 255 256 255 253 252 253 253 253 252 252 253 254 254 254 254 255 256 258 261 264 267 270 272 273 273 274 276 277 275 273 273 274 275 278
256 226 232 239 242 241 240 241 242 242 242 243 241 240 241 243 246 251 251 245 243 248 254 259 262 262 261 258 255 252 249 248 247 246 246 246 245 245 245 245 245 246 246 248 248 247 247 247 248 250 251 252 253 253 253 251 250 252 253 254 254 255 256 257 258 257 257 259 261 263 264 265 267 269 271 269 270 273 273 272 272 273 275 277 279
12 279 239 240 243 246 247 246 244 242 243 245 246 244 243 245 246 249 252 249 243 241 244 249 255 257 257 258 259 256 250 247 246 245 245 245 245 244 244 244 245 245 245 246 247 247 247 246 246 247 248 250 251 251 251 249 248 249 250 252 254 254 254 256 260 263 263 262 263 265 266 266 265 267 269 267 266 268 267 268 270 271 270 271 274
1 11 330 260 247 249 253 253 250 248 247 246 246 247 247 247 246 246 247 247 246 245 243 242 245 249 251 251 254 256 252 248 247 245 244 244 244 244 244 244 244 245 246 247 247 247 248 247 245 245 245 247 248 249 248 246 245 246 247 250 252 254 254 253 255 262 267 267 265 263 264 265 265 264 266 266 266 265 264 267 271 267 260 260 265
352 0 352 313 283 263 262 265 264 260 256 251 250 252 254 253 250 247 247 248 250 250 248 244 242 244 246 248 251 254 253 251 249 246 243 242 242 243 243 243 244 244 245 246 248 248 249 248 246 243 242 243 244 245 246 244 243 243 245 247 249 253 255 253 251 253 258 264 268 266 263 263 264 265 265 264 264 263 263 267 269 263 258 259 262
341 341 338 320 301 287 273 274 275 270 265 260 256 255 257 258 255 251 251 252 254 254 253 252 253 250 246 245 248 250 251 251 250 247 243 241 240 240 242 244 244 244 245 245 247 249 250 249 248 244 241 240 240 242 243 243 242 242 242 243 247 251 253 253 251 250 249 252 261 266 267 265 263 264 264 263 262 262 263 265 267 265 262 260 259
325 322 320 322 322 304 280 274 278 278 276 270 262 256 255 256 254 252 253 254 254 256 255 254 256 257 252 247 246 246 246 248 250 250 246 242 240 240 242 244 244 245 247 248 248 249 250 250 250 247 243 239 238 239 241 242 242 241 241 243 247 250 251 249 248 250 251 252 254 256 261 263 263 263 264 265 265 265 265 265 263 263 262 260 257
312 310 304 305 316 319 300 286 286 287 281 272 264 255 248 248 248 244 244 247 247 249 251 249 248 251 251 248 246 245 245 245 246 249 250 245 241 240 241 243 244 246 249 251 250 250 249 250 251 250 247 242 239 238 240 242 242 241 241 244 246 247 248 248 248 249 251 255 255 254 255 256 257 257 257 258 259 263 267 269 267 263 261 261 260
304 301 293 287 293 302 302 297 293 291 286 278 272 263 252 253 251 239 231 234 237 237 239 242 244 246 247 246 244 243 245 245 245 246 249 248 243 240 240 241 244 246 248 250 251 251 251 251 252 253 250 246 242 240 240 241 242 242 242 243 245 245 246 248 249 248 248 249 250 250 249 249 250 249 249 250 251 251 255 261 266 268 265 261 259
302 299 294 287 284 284 283 289 295 293 286 280 279 275 268 266 262 245 232 233 237 237 235 237 240 245 248 248 245 242 243 246 246 246 248 248 245 242 240 240 242 246 248 248 249 250 250 251 252 254 254 251 247 244 242 241 242 243 243 242 242 243 245 246 246 246 246 246 246 245 244 246 248 246 245 249 252 250 246 247 255 263 265 259 256
300 298 294 289 288 282 268 265 279 288 287 282 279 279 278 275 272 261 246 239 237 235 233 234 238 242 245 246 245 244 242 243 245 247 250 252 250 247 244 241 241 243 246 247 247 248 248 249 251 255 257 257 254 251 247 243 242 243 243 242 241 241 242 243 244 244 244 244 245 245 244 245 249 251 251 253 255 254 252 250 252 256 257 256 255
296 297 294 289 286 284 275 261 256 266 278 281 277 276 279 280 278 275 264 254 247 242 238 238 241 242 243 243 245 246 245 244 246 247 250 254 256 254 250 246 244 243 245 247 248 248 248 248 249 252 257 260 260 256 251 247 245 244 243 241 239 239 238 239 240 241 241 242 243 244 244 244 248 254 258 258 254 251 251 252 253 254 255 256 257
291 292 293 291 287 283 280 274 264 259 264 271 273 273 274 278 281 280 274 265 260 257 254 249 245 245 248 248 247 249 251 252 252 250 249 251 256 259 258 252 246 243 245 249 249 250 251 251 252 253 256 259 261 259 255 251 246 243 241 239 236 236 236 237 238 239 241 242 243 243 244 244 246 251 256 258 254 251 251 251 253 255 257 258 259
289 287 287 290 289 285 281 279 275 269 264 264 266 270 270 269 273 280 281 275 268 265 263 259 255 255 258 259 258 261 261 257 254 254 253 250 251 257 262 259 251 248 251 252 251 252 253 255 255 255 254 256 257 257 255 250 245 242 240 238 236 235 235 236 238 239 240 241 242 244 244 244 246 248 251 254 254 253 252 252 254 255 255 255 255
286 285 285 287 289 286 283 281 279 276 270 261 258 263 269 272 274 277 277 276 272 269 267 265 264 263 263 263 265 269 266 259 256 257 258 255 250 249 256 265 270 272 267 256 250 251 253 254 254 252 250 251 252 252 251 250 247 245 244 243 240 238 236 235 236 238 238 239 240 241 242 242 243 244 245 249 253 255 255 254 254 253 253 252 250
280 281 282 284 284 282 279 278 277 278 275 267 260 259 260 263 272 278 278 274 273 272 271 269 267 265 263 260 259 260 261 263 262 260 260 261 261 258 257 262 270 276 274 267 259 251 247 247 249 248 246 244 244 244 245 246 247 247 248 248 246 243 240 238 238 238 239 240 240 241 242 243 244 244 244 246 250 254 256 255 253 252 252 252 250
275 276 278 278 278 277 276 275 273 275 277 275 273 272 265 256 255 264 272 272 272 273 274 273 270 267 264 262 260 258 259 260 259 257 257 259 262 264 263 262 263 265 267 270 263 249 243 242 244 245 244 243 243 242 242 243 245 246 246 246 246 246 245 244 243 242 242 243 243 243 244 245 246 246 246 246 248 250 251 250 250 250 251 251 249
271 271 273 275 275 276 276 273 270 271 274 275 276 279 279 272 262 259 260 262 264 268 272 275 274 270 266 263 261 260 260 260 260 260 260 259 258 260 262 263 264 265 266 263 252 244 242 241 241 241 243 242 241 240 240 241 242 244 244 243 243 243 244 246 247 247 247 248 249 249 248 248 250 251 251 250 248 248 246 243 243 246 248 249 247
268 269 272 274 274 273 271 268 268 268 270 273 276 276 278 279 277 273 266 259 258 261 265 271 277 277 272 266 262 260 260 262 264 265 265 265 263 261 260 260 263 266 268 263 253 249 249 248 246 245 244 242 241 239 239 240 240 241 243 244 243 242 242 245 248 251 251 252 254 254 254 253 253 253 254 254 252 248 245 243 241 243 247 249 249
267 267 267 265 264 265 266 266 269 269 267 269 274 276 274 270 270 275 276 269 263 261 262 266 274 278 278 273 268 263 261 262 265 268 270 271 270 267 261 258 260 263 264 260 254 252 251 250 252 252 249 247 246 245 243 241 239 240 242 243 243 244 244 244 247 250 251 252 253 254 255 256 255 254 253 253 251 247 245 244 241 240 243 247 248
264 262 262 261 261 262 265 266 268 269 267 266 269 272 273 270 268 271 277 276 270 268 267 267 271 276 280 280 276 270 266 264 265 268 271 273 273 269 263 258 256 257 256 254 252 251 249 248 251 255 256 255 253 251 248 244 240 239 242 242 243 245 246 245 246 248 249 250 251 250 251 253 255 253 250 249 248 246 244 244 242 239 239 243 246
262 261 262 263 262 261 261 263 265 265 265 264 265 267 270 272 272 273 276 278 275 271 269 269 270 273 277 281 282 279 275 270 267 268 270 274 275 269 263 259 255 252 252 254 254 253 251 249 248 252 256 255 251 248 249 249 245 243 243 243 244 248 250 248 247 247 248 250 251 249 248 249 249 250 250 249 247 246 245 245 245 242 240 242 245
259 259 259 259 260 259 259 260 263 264 264 263 263 265 268 271 273 275 277 279 279 275 270 269 270 271 274 279 285 287 286 282 275 268 266 269 272 268 262 259 253 247 248 254 257 256 253 250 248 247 249 250 248 247 249 251 250 250 250 250 249 251 253 253 252 249 247 248 249 249 251 251 248 246 247 246 243 243 245 245 246 246 244 241 240
256 255 255 257 258 256 255 258 261 264 266 266 265 265 265 266 270 274 276 279 281 279 275 272 271 272 275 280 286 288 289 289 284 275 269 271 274 269 261 257 253 246 243 246 252 254 254 251 249 248 249 250 252 252 252 252 252 253 254 254 253 254 258 260 258 253 250 250 250 250 251 252 249 246 245 244 242 243 245 245 244 244 245 243 240
256 255 257 260 258 254 253 257 262 265 266 266 265 264 264 264 268 273 276 278 280 280 279 276 273 271 272 277 281 283 284 286 285 278 273 276 278 273 264 260 257 253 249 247 246 246 249 251 251 250 250 251 253 253 251 250 251 251 252 253 253 257 261 262 259 256 255 254 251 249 247 247 247 247 247 247 246 244 243 243 242 239 239 241 244
256 255 256 259 260 258 258 261 263 264 264 264 262 261 262 264 267 271 274 276 277 278 279 278 276 272 269 271 275 278 279 281 281 277 273 274 276 273 268 265 261 255 252 250 246 242 244 247 249 250 250 250 251 251 249 248 249 249 249 251 253 255 258 259 260 262 261 256 251 249 249 247 246 245 245 247 248 246 241 240 240 239 237 238 243
254 252 253 254 256 258 260 260 260 259 259 260 259 259 261 264 265 269 272 274 275 277 279 279 278 276 272 272 275 277 277 277 277 276 274 271 268 265 264 265 263 258 254 250 247 245 245 244 244 245 247 248 248 248 248 249 249 248 247 250 253 256 258 260 263 265 264 260 257 256 255 252 249 248 248 250 252 250 245 240 240 243 244 242 242
252 251 251 253 256 257 257 256 257 257 257 257 258 259 261 263 263 267 271 273 275 278 280 280 279 278 276 276 277 279 278 277 275 273 272 270 267 265 264 264 266 265 260 253 249 246 245 245 244 244 245 245 247 248 248 247 247 246 246 249 253 256 259 262 264 267 268 267 264 262 259 256 253 252 253 254 254 253 250 246 245 248 251 249 248
254 254 254 255 256 256 256 255 255 254 254 254 255 257 260 262 263 267 272 275 277 280 282 282 282 280 278 279 281 281 281 279 275 272 271 271 269 268 267 264 263 263 260 256 252 247 243 243 245 245 243 241 241 241 241 240 240 242 244 248 251 255 259 261 263 267 269 267 265 263 261 257 254 254 254 255 254 251 250 249 251 254 257 255 253
253 256 258 259 258 257 258 258 256 254 252 253 256 259 262 265 268 271 274 276 278 280 282 283 283 282 281 280 281 281 281 279 276 274 271 269 266 265 265 263 260 259 258 257 256 253 250 248 246 246 244 242 241 240 241 243 245 248 250 252 253 256 260 263 263 265 265 262 260 262 261 258 257 256 255 255 255 253 251 251 251 252 254 255 254
259 261 263 264 262 261 261 261 258 255 255 255 257 260 265 269 272 274 276 278 279 280 282 284 284 283 282 281 280 278 277 276 273 271 269 267 265 264 264 263 261 258 256 256 257 259 259 257 253 249 247 245 245 245 246 248 250 252 254 255 256 257 260 261 262 263 263 259 257 259 261 262 261 258 255 255 255 254 253 254 253 251 250 252 253
269 268 268 266 264 262 262 259 255 254 255 255 255 258 263 269 272 274 276 278 278 279 283 286 285 283 281 280 279 278 276 274 271 266 264 265 266 266 266 265 263 260 259 259 260 260 260 259 257 254 251 249 248 248 248 249 250 252 254 256 257 258 258 259 260 261 261 259 258 260 264 266 265 261 259 259 258 256 256 257 257 254 252 252 252
267 266 264 262 260 260 258 255 254 254 255 255 256 259 262 267 271 274 276 278 279 280 283 285 284 282 280 278 278 277 275 273 270 265 261 261 263 264 265 264 262 260 259 259 260 260 259 258 258 257 255 253 252 251 251 251 251 253 254 254 255 257 258 259 261 261 261 261 262 263 264 265 265 264 263 261 259 258 259 259 257 255 253 252 250
265 261 259 257 256 257 256 254 253 255 257 260 262 263 265 269 273 276 277 279 280 281 283 283 282 280 278 276 276 275 273 270 267 264 259 257 258 259 260 260 260 258 256 255 256 257 259 259 259 258 257 257 256 256 255 255 254 255 255 256 256 257 257 257 258 259 260 260 261 261 262 262 261 260 261 261 259 257 258 257 254 250 249 248 246
263 259 257 258 258 257 256 255 255 257 260 265 269 270 270 271 274 277 279 280 281 281 281 280 279 278 276 274 272 271 268 265 262 259 257 255 255 255 255 256 256 255 254 253 253 255 257 258 259 259 259 259 260 260 259 259 258 257 258 258 259 259 259 258 258 258 259 260 261 260 258 255 252 250 252 254 254 251 249 249 248 245 244 244 245
268 263 259 258 259 258 257 259 261 261 264 268 271 270 270 272 275 278 280 280 280 281 280 279 278 277 276 273 270 266 263 260 257 254 252 251 250 249 248 249 250 251 251 251 252 254 256 258 260 261 261 262 262 262 262 261 260 260 260 261 261 261 261 260 258 258 258 260 260 257 251 245 241 239 241 245 247 245 242 243 243 241 238 238 237
275 271 265 262 263 264 265 266 266 265 265 265 265 266 270 275 278 280 279 278 279 279 279 278 276 273 271 268 265 261 258 254 251 249 247 245 243 242 242 243 245 246 248 250 251 253 256 258 260 261 262 263 264 265 265 265 264 264 264 264 263 262 261 259 257 256 257 256 253 249 243 236 233 233 234 238 241 239 236 234 231 225 218 213 206